Miscellaneous Local Product
Issued by NWS Hastings, NE

Home | Current Version | Previous Version | Graphics & Text | Print | Product List | Glossary On
Versions: 1 2 3 4 5 6 7 8 9 10 11 12 13 14 15 16 17 18 19 20 21 22 23 24 25 26 27 28 29 30 31 32 33 34 35 36 37 38 39 40 41 42 43 44 45 46 47 48 49 50
000
AXUS43 KGID 250502
MISGRI

GID CWA HOURLY WEATHER ROUNDUP
NATIONAL WEATHER SERVICE HASTINGS NE
1100 PM CST SAT JAN 24 2015

NOTE: "FAIR" INDICATES FEW OR NO CLOUDS BELOW 12,000 FEET WITH NO
SIGNIFICANT WEATHER AND/OR OBSTRUCTIONS TO VISIBILITY.

...SOUTH CENTRAL NEBRASKA...

CITY           SKY/WX    TMP DP  RH WIND       PRES   REMARKS
GRAND ISLAND   CLOUDY    45  35  68 NW18      29.74S
HASTINGS       LGT RAIN  47  35  63 NW24G36   29.74S
KEARNEY        PTCLDY    45  30  57 NW24G32   29.78S
ORD            CLOUDY    44  34  67 NW30G37   29.73S
YORK           CLOUDY    46  39  76 NW22G31   29.70S
AURORA         MOCLDY    46  37  71 NW18G26   29.72S
LEXINGTON      CLEAR     43  34  69 NW24      29.83S
HOLDREGE       PTCLDY    44  34  67 NW23G31   29.80S
HEBRON         MOCLDY    45  32  61 NW15G21   29.72S

...NEBRASKA PANHANDLE...

CITY           SKY/WX    TMP DP  RH WIND       PRES   REMARKS
CHADRON        CLEAR     36  29  75 NW18      30.02R WCI  26
ALLIANCE       CLEAR     37  28  70 NW23G32   30.00R WCI  26
SCOTTSBLUFF    MOCLDY    37  32  82 NW16      30.07R WCI  28
SIDNEY         MOCLDY    37  28  70 NW24G30   30.05R WCI  26

...WESTERN AND NORTH CENTRAL NEBRASKA...

CITY           SKY/WX    TMP DP  RH WIND       PRES   REMARKS
VALENTINE      CLOUDY    42  32  67 NW28G46   29.83R
AINSWORTH      RAIN      40  34  77 NW28G41   29.78R WCI  29
ONEILL         CLOUDY    42  38  84 NW30G38   29.70S
BROKEN BOW     CLOUDY    45  32  60 NW35G43   29.79R
IMPERIAL       CLOUDY    43  28  55 NW26G36   29.97R
NORTH PLATTE   PTCLDY    39  33  79 W14       29.90R WCI  31
MCCOOK         CLOUDY    45  33  63 NW25G35   29.90R

...EASTERN NEBRASKA...

CITY           SKY/WX    TMP DP  RH WIND       PRES   REMARKS
NORFOLK        CLOUDY    43  36  76 NW24G33   29.62S
SO SIOUX CITY  LGT RAIN  43  41  93 NW15      29.58R
TEKAMAH        CLOUDY    46  39  76 NW26G37   29.59R
COLUMBUS       CLOUDY    45  36  70 NW14G20   29.67R
ALBION         RAIN      43  37  80 NW20G29   29.67S
OMAHA EPPLEY   CLOUDY    46  40  79 NW9       29.59F
OFFUTT AFB     CLOUDY    45  40  84 W7        29.60R
MILLARD        CLOUDY    47  41  80 W10       29.60F
LINCOLN        MOCLDY    48  39  71 NW17      29.67R
NEBRASKA CITY  CLOUDY    43  39  85 W12       29.62F
BEATRICE       CLOUDY    45  40  85 W13       29.68S
FALLS CITY     LGT RAIN  45  41  86 W12       29.65F

...NORTHERN KANSAS...

CITY           SKY/WX    TMP DP  RH WIND       PRES   REMARKS
GOODLAND       CLOUDY    43  30  60 NW30G39   30.00F
HILL CITY      CLOUDY    49  34  56 NW21G31   29.89R
NORTON         CLEAR     48  32  53 NW17G30   29.86R
PHILLIPSBURG   CLEAR     48  36  61 W14G22    29.85R
SMITH CENTER   CLEAR     46  34  61 NW18G26   29.82R
BELOIT         CLEAR     48  36  61 W12       29.77S
HAYS           MOCLDY    52  30  43 NW20G28   29.86S
RUSSELL        MOCLDY    47  37  68 W16       29.83R
CONCORDIA      MOCLDY    47  34  60 W16       29.74R
SALINA         CLOUDY    49  40  71 W17       29.78S
TOPEKA         CLOUDY    50  39  66 W8        29.71F



USA.gov is the U.S. government's official web portal to all federal, state and local government web resources and services.